Location: Starry Hill Observatory
(46.8582°N, 122.3590°W)
Time: 20:30:56
(UTC-07:00)

Daily predictions for brighter satellites

Satellite Brightness Start Highest point End
(mag) Time Altitude Azimuth Time Altitude Azimuth Time Altitude Azimuth
Cosmos 1850 Rocket 4.5 21:14:11 10° NNW 21:19:22 49° ENE 21:24:32 10° SE
Okean 3 3.7 21:16:54 10° N 21:21:07 55° ENE 21:25:17 10° SSE
Cosmos 676 Rocket 4.3 21:15:58 10° NNW 21:21:10 70° WSW 21:26:21 10° S
CZ-4 DEB 3.6 21:18:20 10° S 21:21:25 51° W 21:24:32 10° NNW
Cosmos 2154 Rocket 4.0 21:16:57 10° S 21:23:05 66° E 21:29:14 10° NNE
BREEZE-M DEB (TANK) 4.2 21:04:43 10° WNW 21:23:39 80° SSW 21:28:06 10° ESE
Cosmos 1954 Rocket 4.1 21:19:05 10° NNW 21:24:19 83° WSW 21:29:34 10° SSE
BREEZE-M DEB (TANK) 2.7 21:21:52 10° WSW 21:24:24 82° SSE 21:30:21 10° ENE
USA 229 DEB 4.1 21:23:33 10° NW 21:30:34 60° NE 21:37:39 10° SE
USA 229 4.1 21:23:39 10° NW 21:30:40 60° NE 21:37:44 10° ESE
Cosmos 1825 2.2 21:27:21 10° S 21:31:07 61° E 21:34:55 10° NNE
Cosmos 1939 Rocket 2.9 21:29:27 10° SSE 21:33:21 83° WSW 21:37:20 10° NNW
Cosmos 1833 Rocket 3.3 21:32:29 10° NNW 21:37:53 44° NE 21:42:58 11° SE
MetOp-A 4.3 21:34:12 10° SSE 21:39:26 61° ENE 21:44:44 10° N
Cosmos 1023 Rocket 4.5 21:34:45 10° NNW 21:39:53 89° W 21:45:02 10° SSE
Cosmos 1741 Rocket 4.1 21:35:52 10° NNW 21:41:06 70° ENE 21:46:14 10° SSE
SL-8 R/B 3.9 21:36:24 10° W 21:41:14 77° N 21:46:04 10° E
Cosmos 1844 Rocket 3.5 21:38:51 10° SW 21:44:25 57° WNW 21:49:59 10° NNE
PSLV R/B 3.3 21:43:22 12° SSE 21:45:58 53° ENE 21:48:52 10° N
Cosmos 2278 Rocket 2.2 21:41:10 10° SSW 21:46:51 81° ESE 21:52:34 10° NNE
Okean 2 Rocket 3.1 21:44:29 10° S 21:48:51 63° E 21:53:13 10° NNE
CZ-4 SHROUD 3.3 21:47:01 13° SSE 21:49:41 58° ENE 21:52:45 10° N
Cosmos 1844 4.3 21:47:27 10° SW 21:53:11 65° WNW 21:58:59 10° NNE
Cosmos 1782 Rocket 3.6 21:51:49 10° S 21:56:17 90° WNW 22:00:48 10° N
COSMOS 2487 4.0 21:55:26 10° NW 21:58:43 33° WSW 22:01:59 10° SSW
Envisat 3.5 21:53:58 10° S 21:58:58 59° W 22:04:00 10° NNW
Cosmos 614 Rocket 3.9 21:55:08 10° NNW 22:00:16 89° WSW 22:04:45 13° SSE
Cosmos 1812 4.1 21:57:10 10° NNE 22:00:25 25° ENE 22:02:27 16° ESE
Cosmos 2084 4.0 21:58:42 10° SW 22:02:28 55° NW 22:06:16 10° NNE
SL-08 RB Rocket 4.2 21:59:45 16° SE 22:03:15 47° ENE 22:07:44 10° N
Cosmos 2082 Rocket 2.2 21:58:15 10° NNW 22:03:59 82° ENE 22:08:39 16° SSE
Meteor 2-13 Rocket 4.4 21:59:00 10° S 22:05:09 81° E 22:11:20 10° N
AVUM R/B 3.7 22:02:11 10° NNW 22:05:39 54° ENE 22:07:46 21° SE
Cosmos 1975 Rocket 3.6 22:03:44 10° NNW 22:07:59 57° W 22:12:14 10° S
Cosmos 1420 Rocket 4.0 22:06:46 10° SSW 22:12:01 86° WNW 22:17:16 10° NNE
APEX 3.7 22:09:05 10° SSW 22:13:14 84° ESE 22:18:45 10° NNE
ISS -3.1 22:10:01 10° WSW 22:13:15 73° NNW 22:16:32 10° ENE
Cosmos 1140 Rocket 4.4 22:10:10 10° NNW 22:15:04 45° WSW 22:19:57 10° S
NOSS 3-1 (C) 4.5 22:10:37 10° NW 22:17:45 53° NE 22:24:23 15° ESE
Cosmos 2218 Rocket 4.1 22:12:12 10° S 22:18:32 70° E 22:24:55 10° NNE
Meteor 1-14 Rocket 4.2 22:15:09 10° S 22:20:48 78° E 22:26:23 10° NNE
Cosmos 1536 Rocket 3.6 22:16:28 10° N 22:20:57 65° ENE 22:23:50 21° SSE
Terra 2.6 22:18:59 20° ESE 22:21:45 37° ENE 22:26:08 10° N
Cosmos 2297 3.7 22:18:48 10° SSW 22:24:30 83° ESE 22:30:17 10° NNE
CZ-4B R/B 3.4 22:19:53 10° NNE 22:24:49 65° ESE 22:29:10 13° S
DELTA 2 DEB (DPAF) 4.5 22:23:15 23° SE 22:25:51 52° ENE 22:30:13 10° N
Cosmos 1727 Rocket 4.0 22:22:43 10° N 22:28:56 75° E 22:33:32 19° SSE
Cosmos 1959 Rocket 4.4 22:22:52 10° S 22:28:59 83° E 22:35:08 10° N
NOAA 11 4.2 22:24:52 17° SSE 22:29:12 88° WSW 22:34:45 10° NNW
Meteor 2-8 Rocket 4.4 22:23:05 10° N 22:29:17 76° E 22:33:49 19° SSE
USA 234 4.2 22:25:15 10° ENE 22:30:06 22° SE 22:31:10 21° SE
BREEZE-M DEB 4.5 22:26:48 10° WSW 22:30:46 69° NNW 22:33:11 12° ENE
Abrixas 4.4 22:28:13 10° SSW 22:29:11 17° SSW 22:29:11 17° SSW
Lacrosse 5 rocket 2.9 22:33:05 17° E 22:33:05 17° E 22:34:21 10° ENE
H-2A R/B 2.3 22:32:29 23° SE 22:35:46 60° ENE 22:40:57 10° N
Cosmos 1242 Rocket 4.5 22:33:15 10° NW 22:36:24 27° W 22:39:33 10° SSW
SPOT 5 4.3 22:33:11 10° SSW 22:38:07 39° W 22:43:08 10° NNW
IGS 5A 4.0 22:38:16 28° SE 22:40:00 45° ENE 22:44:00 10° N
USA 245 4.2 22:40:34 19° SSW 22:42:57 46° W 22:47:15 10° NNW
YAOGAN 6 4.2 22:42:22 13° SSW 22:45:01 29° W 22:48:10 10° NNW
Intercosmos 25 4.5 22:43:10 10° SW 22:46:14 33° WNW 22:49:12 10° N
H-2A R/B 4.5 22:46:08 10° SW 22:48:59 17° W 22:51:49 10° NW
NOSS 8 (F) 4.4 22:46:22 10° SW 22:49:50 79° SE 22:53:41 10° NE
Cosmos 1339 Rocket 4.4 22:44:05 10° N 22:50:16 89° E 22:54:22 23° S
Lacrosse 5 2.5 22:49:52 30° SSE 22:50:58 33° SE 22:55:31 10° ENE
Cosmos 1025 Rocket 4.2 22:47:12 10° N 22:51:05 29° ENE 22:52:22 25° ESE
SPOT 1/Viking Rocket 4.3 22:47:30 16° S 22:51:31 49° W 22:56:36 10° NNW
CZ-4C R/B 3.3 22:50:24 33° SSE 22:52:08 88° WSW 22:56:22 10° NNW
Cosmos 2369 Rocket 3.4 22:53:08 22° ESE 22:53:37 22° E 22:57:50 10° NE
ARGOS 3.7 22:50:50 18° S 22:54:45 53° W 23:00:01 10° NNW
Gbstr 26 Del rocket 3.1 22:49:53 10° WNW 22:55:04 75° SSW 22:56:49 36° SE
Cosmos 2151 Rocket 4.1 22:51:23 12° SSW 22:55:26 60° WNW 22:59:57 10° N
Cosmos 1400 Rocket 3.9 23:00:48 29° E 23:01:03 29° E 23:04:39 10° NNE
Cosmos 1821 Rocket 4.5 23:01:40 29° SE 23:04:15 43° E 23:10:03 10° NNE
Cosmos 1536 4.0 23:04:38 26° E 23:04:39 26° E 23:08:00 10° NNE
Cosmos 1300 Rocket 3.5 23:03:17 35° S 23:05:06 76° E 23:09:35 10° NNE
ASTEX 1 3.5 23:03:53 10° NNE 23:08:48 61° E 23:10:36 37° SSE
Iridium 4 Rocket 4.3 23:04:02 10° N 23:09:43 46° E 23:11:58 32° SE
Meteor 1-19 Rocket 4.4 23:06:06 10° N 23:11:56 61° ENE 23:14:22 34° SE
Okean 1 Rocket 3.0 23:10:37 39° S 23:12:16 78° E 23:16:44 10° NNE
SAR-Lupe-2 3.5 23:11:48 58° SE 23:12:19 68° ENE 23:15:53 10° N
Cosmos 1934 Rocket 4.5 23:11:04 31° SE 23:13:09 41° E 23:18:47 10° NNE
Meteor 1-20 Rocket 4.4 23:14:25 18° SSW 23:18:35 69° WNW 23:24:05 10° N
Cosmos 2123 Rocket 4.5 23:13:08 10° N 23:19:11 48° ENE 23:21:40 32° SE
Cosmos 1833 Rocket 3.9 23:16:43 10° NW 23:21:39 32° WSW 23:24:40 20° SSW
Cosmos 1943 Rocket 4.0 23:22:12 15° E 23:22:12 15° E 23:24:53 10° ENE
Timation 1 Rocket 4.5 23:16:21 10° SW 23:22:22 75° WNW 23:28:24 10° NNE
SL-8 R/B 3.7 23:19:09 10° WNW 23:24:00 84° NNE 23:26:15 32° E
Okean 1 4.2 23:20:47 10° NNW 23:24:41 44° W 23:26:05 31° SW
Okean 1-7 Rocket 3.8 23:22:12 10° NNW 23:26:39 65° W 23:28:04 41° SSW
Cosmos 1331 Rocket 4.3 23:25:52 17° SW 23:29:52 66° WNW 23:35:02 10° NNE
Cosmos 1503 Rocket 4.0 23:24:58 10° NNW 23:30:15 75° ENE 23:31:55 44° SE
CZ-4B R/B 4.0 23:30:52 10° ENE 23:30:52 10° ENE 23:31:29 10° NE
Cosmos 1544 Rocket 4.3 23:34:12 36° E 23:34:14 36° E 23:38:12 10° NNE
Cosmos 1812 4.4 23:32:59 10° NNW 23:36:16 26° W 23:37:39 21° WSW
Cosmos 1602 3.6 23:38:05 72° S 23:38:28 90° W 23:42:24 10° N
DMSP B5D2-2 4.3 23:34:23 10° N 23:39:35 68° WNW 23:42:25 27° SSW
NOSS 3-1 (A) 4.0 23:32:29 10° NW 23:39:59 81° SW 23:43:53 35° SSE
H-2A R/B 4.5 23:41:07 10° NE 23:43:50 18° E 23:43:50 18° E
Cosmos 1535 Rocket 4.5 23:41:24 34° S 23:44:24 89° E 23:50:50 10° N
Cosmos 2082 Rocket 4.3 23:43:53 10° WNW 23:47:18 16° W 23:50:30 11° SW
Genesis I 3.2 23:47:00 59° SW 23:47:42 82° NW 23:51:45 10° NE
Meteor 2-15 Rocket 4.4 23:43:06 10° N 23:49:15 73° E 23:51:17 44° SSE
ISS -1.6 23:46:59 10° WNW 23:50:01 34° N 23:51:55 18° NE
